sat.trackr.live / text

‹ back to catalog

STARLINK-34525

NORAD 64678 · 2025-139Q

PAYLOAD ACTIVE UNKNOWN

§ Identity

Operator
Country
US
Launch date
2025-06-28
Launch site
AFETR
Launch vehicle
Mass (kg)
RCS (m²)

Purposes: comms

External: N2YO · Heavens-Above · Gunter

§ Orbital elements

Epoch: 2026-09-20T09:40:40.984896Z

Period
93.85 min
Inclination
53.1599°
Eccentricity
0.0001354
Mean motion
15.34399831 rev/d
Perigee alt
461.8 km
Apogee alt
463.6 km
Semi-major
6,840.8 km
B*
3.6558e-4
RAAN
299.9177°
Arg perigee
90.6561°
Mean anomaly
269.4596°
Rev number
7,013

§ Raw data

STARLINK-345251 64678U 25139Q   26263.40325214  .00011995  00000+0  36558-3 0  99952 64678  53.1599 299.9177 0001354  90.6561 269.4596 15.34399831 70137

JSON: /api/v1/satellites/64678 · /tle

For live sub-satellite position, see the globe view (requires WebGL).

§ Visibility from observer

Set your observer location to see the next 7 days of passes ≥ 10°. The values pass through the URL so the page stays shareable.

No JS? Fill the form by hand. The geolocation button needs JavaScript.